ONEWEB-0088, 45457

Orbit data source: Space-Track

ONEWEB-0088, 45457 is a payload satellite owned by One Web (UK) in LEO that was launched on Sat, 21 Mar 2020 UTC via a SOYUZ-2-1B launch vehicle from the Tyuratam Missile And Space Complex (TTMTR). Payload-class satellites include a variety of spacecraft equipped with specific instruments for various scientific and technological missions. These include communications satellites like Starlink; space stations such as the ISS; scientific satellites like the Hubble; Earth observation satellites from companies like Planet Labs, Umbra, and HawkEye 360; GPS; miniature CubeSats for education and research; and military/defense satellites.

Loading next visibility...
Identifier
45457, 2020-020AK
Orbit
LEO
Country
Flag of UKUK
Related business
Manufacturer
One Web
Mission
Operational Commercial Communications
Bus & Motor
ARROW, Unknown motor
Mass
148 kg wet, ~140 kg dry
Launch date (UTC)
2020-03-21 (6 years ago)
Launch vehicle
SOYUZ-2-1B
Launch site
Tyuratam Missile And Space Complex (TTMTR)
Object type
Payload
Rocket body
Debris
Shape & HBR
Trap Box + 2 Pan, 6.7 m
Radar Cross Section
3.464 m², Large (>1 m²)

Expand to show TLE details & history
Last TLE update: 5 hours ago

TLE from 5 hours ago
0 ONEWEB-0088
1 45457U 20020AK  26035.29705749 -.00000348  00000-0 -10178-2 0  9994
2 45457  87.8836  47.4570 0002030  84.0404 276.0955 13.11418004285124
Epoch: 2026-02-04T07:07Z
TLE epoch observation values (Epoch: 2026-02-04T07:07:45.767Z)
Latitude
-0.00003°
Longitude
166.05064°
Altitude
1,220.404 km
Speed
7.244 km/s
True Right ascension
03h 09m 49s
True Declination
0° 00' 00"
Sunlit
Object was in daylight at epoch
Visualization orbit readout
Latitude
Unknown
Longitude
Unknown
Altitude
Unknown
Speed
Unknown
Apparent Right ascension
Unknown
Apparent Declination
Unknown
Sunlit
N/A
Visualization observer readout
Local Sidereal Time
14:16:52
Azimuth
Unknown
Elevation
Unknown
Doppler factor
Unknown
Orbital elements
Apogee altitude
1,216.338 km
Perigee altitude
1,213.256 km
Semi-major axis
7,592.934 km
Eccentricity
0.0002
Inclination
87.8836°
RAAN
47.457°
Arg. of periapsis
84.0404°
True anomaly
276.07237°
Mean anomaly
276.0955°
Eccentric anomaly
276.08393°
Mean motion
3.28041 °/min
Orbital period
109.74 mins
BSTAR
-0.0010178
Loading maneuver chart data...
Computing Atmospheric mass density...
Loading historical data...
Loading historical data...
Loading historical data...
Loading historical data...
Loading historical data...
Loading historical data...
Loading historical data...

Documentation

Showing up to 5 results
|